Flag for Germany Weather past 2 weeks in Prenzlau, Brandenburg, Germany

Now
39 °F

Partly sunny.


Feels Like: 35 °F
Forecast: 35 / 43 °F
Wind: 6 mph from Southwest

Location: Szczecin Airport

Current Time: Mar 31, 2015 at 2:41:58 PM

Latest Report: Mar 31, 2015 at 2:00 PM


Visibility: N/A

Pressure: 28.97 "Hg

Humidity: 93%

Dew point: 37 °F

Location of PrenzlauLocation

Historic Weather in Prenzlau — Graph

°F

Prenzlau temperature yesterday

Maximum temperature yesterday: 48 °F (at 2:30 AM)
Minimum temperature yesterday: 39 °F (at 5:00 AM)
Average temperature yesterday: 44 °F

Past Weeks' High & Low Weather Summary

 TemperatureHumidityPressure
High61 °F (Mar 17, 2:30 PM)100% (Mar 26, 8:00 PM)30.57 "Hg (Mar 26, 8:00 PM)
Low23 °F (Mar 22, 6:30 AM)18% (Mar 21, 1:00 AM)28.91 "Hg (Mar 30, 2:30 AM)
Average43 °F67%29.97 "Hg
* Reported Mar 16 12:00 Noon — Mar 31 1:30 PM, Prenzlau, Weather by CustomWeather, © 2015

Note: Actual official high and low records may vary slightly from our data, if they occured in-between our weather recording intervals... More about our weather records

Advertising

Prenzlau weather history for previous 24 hours

 ConditionsComfort  
Time TempWeatherWind HumidityBarometerVisibility
1:30 PM
Tue, Mar 31
34 °FLight rain. Broken clouds.7 mph100%28.97 "HgN/A
1:00 PM34 °FLight rain. Partly sunny.12 mph100%29.00 "HgN/A
12:30 PM32 °FLight rain. Ice fog.13 mph100%29.00 "Hg2 mi
12:00 PM32 °FLight snow. Ice fog.15 mph100%29.00 "Hg1 mi
11:30 AM32 °FSnow. Ice fog.16 mph100%29.03 "Hg1 mi
11:00 AM32 °FSnow. Ice fog.17 mph100%29.03 "Hg1 mi
10:30 AM34 °FRain. Fog.15 mph93%29.06 "Hg1 mi
10:00 AM34 °FLight rain. Fog.17 mph93%29.09 "Hg3 mi
9:30 AM36 °FLight rain. Fog.16 mph87%29.12 "Hg3 mi
9:00 AM36 °FLight rain. Broken clouds.13 mph87%29.18 "HgN/A
8:30 AM36 °FLight rain. Broken clouds.13 mph87%29.21 "Hg4 mi
8:00 AM37 °FLight rain. Scattered clouds.12 mph75%29.27 "HgN/A
7:30 AM37 °FPassing clouds.9 mph75%29.27 "HgN/A
7:00 AM37 °FClear.8 mph75%29.30 "Hg10 mi
6:30 AM37 °FClear.8 mph75%29.33 "Hg10 mi
6:00 AM37 °FClear.8 mph75%29.39 "Hg10 mi
5:30 AM37 °FClear.9 mph81%29.42 "Hg10 mi
5:00 AM36 °FClear.8 mph87%29.45 "Hg10 mi
4:30 AM37 °FPassing clouds.7 mph81%29.45 "HgN/A
4:00 AM37 °FClear.9 mph81%29.47 "Hg10 mi
3:30 AM37 °FClear.9 mph81%29.50 "Hg10 mi
3:00 AM37 °FPassing clouds.9 mph81%29.50 "HgN/A
2:30 AM37 °FPassing clouds.12 mph75%29.50 "HgN/A
2:00 AM39 °FPassing clouds.16 mph75%29.50 "HgN/A
1:30 AM39 °FPartly cloudy.17 mph75%29.53 "HgN/A
1:00 AM41 °FPassing clouds.17 mph70%29.50 "HgN/A
12:30 AM41 °FPassing clouds.21 mph70%29.50 "HgN/A
12:00 AM41 °FPassing clouds.16 mph70%29.50 "HgN/A
11:30 PM
Mon, Mar 30
41 °FPassing clouds.22 mph76%29.47 "HgN/A
11:00 PM43 °FPassing clouds.20 mph71%29.47 "HgN/A
10:30 PM43 °FPassing clouds.18 mph71%29.45 "HgN/A
10:00 PM43 °FPassing clouds.16 mph71%29.45 "HgN/A
9:30 PM43 °FPassing clouds.21 mph71%29.42 "HgN/A
9:00 PM43 °FPassing clouds.20 mph71%29.42 "HgN/A
8:30 PM43 °FScattered clouds.21 mph76%29.42 "HgN/A
8:00 PM45 °FBroken clouds.15 mph71%29.39 "HgN/A
7:30 PM43 °FScattered clouds.15 mph81%29.36 "HgN/A
7:00 PM45 °FScattered clouds.21 mph71%29.33 "HgN/A
6:30 PM45 °FScattered clouds.16 mph71%29.33 "HgN/A
6:00 PM46 °FScattered clouds.16 mph66%29.30 "HgN/A
5:30 PM46 °FScattered clouds.24 mph57%29.27 "HgN/A
5:00 PM46 °FScattered clouds.17 mph62%29.27 "HgN/A
4:30 PM48 °FScattered clouds.17 mph62%29.24 "HgN/A
4:00 PM45 °FScattered clouds.21 mph66%29.24 "HgN/A
3:30 PM46 °FScattered clouds.20 mph71%29.21 "HgN/A
3:00 PM45 °FScattered clouds.18 mph76%29.21 "HgN/A
2:30 PM43 °FSprinkles. Partly sunny.18 mph81%29.21 "HgN/A
2:00 PM43 °FScattered clouds.17 mph87%29.18 "HgN/A
Weather by CustomWeather, © 2015

See weather overviewHow to use our weather pages